Burien, Washington, United States
Lat: 47.47N, Lon: 122.35W
Wx Zone: WAZ508
Local Info
Past Weather Observations for Today

NOTE: This archive is for the closest National Weather Service station to Burien. Information may differ from the station used for current weather conditions.

Click here for Long-term Archive

Time Weather Temperature Dewpoint Humidity Pressure Winds Precip Visibility
21:53
Clear
43°F / 6°C 37°F / 3°C 81% 30.51 in
(1033 mb)
NNW 4.6 mph
(NNW 7 kph)
- 10SM
20:53
Partly Cloudy
45°F / 7°C 37°F / 3°C 76% 30.51 in
(1033 mb)
N 6.9 mph
(N 11 kph)
- 10SM
19:53
Partly Cloudy
45°F / 7°C 37°F / 3°C 76% 30.54 in
(1034 mb)
N 6.9 mph
(N 11 kph)
- 10SM
18:53
Partly Cloudy
45°F / 7°C 37°F / 3°C 76% 30.54 in
(1034 mb)
N 8.1 mph
(N 13 kph)
- 10SM
17:53
Mostly Cloudy
46°F / 8°C 37°F / 3°C 71% 30.54 in
(1034 mb)
NNW 4.6 mph
(NNW 7 kph)
- 10SM
16:53
Mostly Cloudy
50°F / 10°C 37°F / 3°C 62% 30.54 in
(1034 mb)
N 6.9 mph
(N 11 kph)
- 10SM
15:53
Mostly Cloudy
50°F / 10°C 36°F / 2°C 58% 30.54 in
(1034 mb)
N 9.2 mph
(N 15 kph)
- 10SM
14:53
Mostly Cloudy
50°F / 10°C 36°F / 2°C 58% 30.54 in
(1034 mb)
N 9.2 mph
(N 15 kph)
- 10SM
13:53
Mostly Cloudy
52°F / 11°C 36°F / 2°C 54% 30.57 in
(1035 mb)
N 9.2 mph
(N 15 kph)
- 10SM
12:53
Mostly Cloudy
50°F / 10°C 37°F / 3°C 62% 30.57 in
(1035 mb)
N 9.2 mph
(N 15 kph)
- 10SM
11:53
Mostly Cloudy
50°F / 10°C 37°F / 3°C 62% 30.57 in
(1035 mb)
NNW 4.6 mph
(NNW 7 kph)
- 10SM
10:53
Mostly Cloudy
46°F / 8°C 36°F / 2°C 66% 30.57 in
(1035 mb)
NNE 3.5 mph
(NNE 6 kph)
- 10SM
09:53
Overcast
43°F / 6°C 34°F / 1°C 71% 30.57 in
(1035 mb)
Calm - 10SM
08:53
Overcast
39°F / 4°C 34°F / 1°C 81% 30.54 in
(1034 mb)
SE 5.8 mph
(SE 9 kph)
- 10SM
07:53
Mostly Cloudy
39°F / 4°C 36°F / 2°C 87% 30.54 in
(1034 mb)
E 3.5 mph
(E 6 kph)
- 10SM
06:53
Overcast
37°F / 3°C 34°F / 1°C 87% 30.54 in
(1034 mb)
NW 3.5 mph
(NW 6 kph)
- 10SM
05:53
Mostly Cloudy
37°F / 3°C 36°F / 2°C 93% 30.51 in
(1033 mb)
Calm - 10SM
04:53
Mostly Cloudy
36°F / 2°C 34°F / 1°C 93% 30.51 in
(1033 mb)
NE 4.6 mph
(NE 7 kph)
- 10SM
03:53
Mostly Cloudy
39°F / 4°C 34°F / 1°C 81% 30.54 in
(1034 mb)
E 5.8 mph
(E 9 kph)
- 10SM
02:53
Partly Cloudy
37°F / 3°C 34°F / 1°C 87% 30.54 in
(1034 mb)
ENE 5.8 mph
(ENE 9 kph)
- 10SM
01:53
Partly Cloudy
37°F / 3°C 34°F / 1°C 87% 30.51 in
(1033 mb)
Calm - 10SM
00:53
Partly Cloudy
39°F / 4°C 34°F / 1°C 81% 30.48 in
(1032 mb)
Calm - 10SM
Time Weather Temperature Dewpoint Humidity Pressure Winds Precip Visibility


Weather for websites

WeatherForYou.com, LLC is not responsible for any damages or problems caused by this service. Current weather conditions are obtained from the closest station including government and personal stations which may have varying degrees of accuracy. Weather forecasts are derived from the NOAA NDFD. Like all things, this site belongs to Jesus Christ... He just trusts us to maintain it. If you have any questions or comments email webmaster@weatherforyou.com

Copyright © 2016, WeatherForYou.com LLC. All rights reserved.